NOAA 16 DEB, 41062

Orbit data source: Space-Track

NOAA 16 DEB, 41062 is space debris in SSO originally from a launch on Thu, 21 Sep 2000 UTC launched from the Air Force Western Test Range (AFWTR). Debris objects in space refer to the collection of defunct objects orbiting the Earth. Examples of debris include non-operational satellites, rocket bodies, and fragments generated from explosions, collisions, or faulty payload assembly.

Loading next visibility...
Identifier
41062, 2000-055V
Orbit
SSO
Country
Flag of USUS
Related business
Manufacturer
Unknown
Mission
Spacecraft
Bus & Motor
Unknown
Mass
Unknown
Launch date (UTC)
2000-09-21 (26 years ago)
Launch vehicle
Unknown
Launch site
Air Force Western Test Range (AFWTR)
Object type
Payload
Rocket body
Debris
Shape & HBR
Unknown shape, 0.1 m
Radar Cross Section
Medium (>0.1 m² and <1 m²)

Expand to show TLE details & history
Last TLE update: 12 hours ago

TLE from 12 hours ago
0 NOAA 16 DEB
1 41062U 00055V   26165.07136397  .00002252  00000-0  11076-2 0  9997
2 41062  98.6537 197.4816 0025946 195.4465 164.5922 14.18442464542625
Epoch: 2026-06-14T01:42Z
TLE epoch observation values (Epoch: 2026-06-14T01:42:45.847Z)
Latitude
0.00004°
Longitude
-90.5868°
Altitude
851.578 km
Speed
7.418 km/s
True Right ascension
13h 09m 55s
True Declination
0° 00' 00"
Sunlit
Object was in daylight at epoch
Visualization orbit readout
Latitude
Unknown
Longitude
Unknown
Altitude
Unknown
Speed
Unknown
Apparent Right ascension
Unknown
Apparent Declination
Unknown
Sunlit
N/A
Visualization observer readout
Local Sidereal Time
00:36:50
Azimuth
Unknown
Elevation
Unknown
Doppler factor
Unknown
Orbital elements
Apogee altitude
846.48 km
Perigee altitude
809.087 km
Semi-major axis
7,205.92 km
Eccentricity
0.00259
Inclination
98.6537°
RAAN
197.4816°
Arg. of periapsis
195.4465°
True anomaly
164.67095°
Mean anomaly
164.5922°
Eccentric anomaly
164.6316°
Mean motion
3.54821 °/min
Orbital period
101.46 mins
BSTAR
0.0011076
Loading maneuver chart data...
Computing Atmospheric mass density...
Loading historical data...
Loading historical data...
Loading historical data...
Loading historical data...
Loading historical data...
Loading historical data...
Loading historical data...

Documentation

Showing up to 5 results
|